Find Starlink 11463

NORAD ID: 62066 Int'l Des: 2024-217 Owner: SPXS Country: US Constellation: starlink operational
LEOCIRCULAR

Live-Position

3D-Globus wird geladen...

Über Starlink 11463

Beschreibung wird geladen...

Nächste Überflüge

Passes for default location (London). Set your location on the main map for personalized predictions.

Höhenverlauf

Loading altitude history...

Zweizeiliger Elementsatz

1 62066U 24217K 26123.50648373 .00182240 00000-0 14697-2 0 9992
2 62066 53.1573 160.9899 0000733 98.8089 261.3012 15.69816729 83788
Epoch: 3. Mai 2026 • Age: 5 hours

Aktueller Status

Höhe 364.5 km
Geschwindigkeit 7.70 km/s
Subsatellitenpunkt 49.81°N, 104.58°E
Startdatum 24. Nov. 2024
Alter 1.4 years
Typ internet

Technische Details

Klassifizierung Payload
Masse 960.00 kg
Trockenmasse 910.00 kg
Gesamtmasse 960.00 kg
Länge 0.30 m
Durchmesser 4.10 m
Spannweite 29.00 m
Form Box + pan
Hersteller SPXS
Bus-Typ Starlink V2MD
Phasenstatus In Orbit
Besitzer/Staat SPXS/US

Most Searched